KF4PPJ Weather Reports


time (UTC)temp
F
wind
direction
speed
knots
gust
knots
rain 1hr
in
rain 24hr
in
rain mn
in
humidity
%
barometer
mb
20260502170126 56 189 1.7 2.6 0.00 0.00 0.00 81 1019.7
20260502164112 54 150 3.5 6.1 0.00 0.00 0.00 85 1019.9
20260502163609 54 202 2.6 4.3 0.00 0.00 0.00 85 1019.9
20260502163105 54 204 0.9 1.7 0.00 0.00 0.00 86 1019.8
20260502162602 53 175 1.7 2.6 0.00 0.00 0.00 87 1020.1
20260502162059 53 175 1.7 1.7 0.00 0.00 0.00 88 1019.9
20260502161556 53 153 2.6 2.6 0.00 0.00 0.00 88 1019.8
20260502161053 53 175 2.6 2.6 0.00 0.00 0.00 89 1019.9
20260502160551 52 148 0.9 1.7 0.00 0.00 0.00 90 1020.0
20260502152004 52 156 0.0 0.0 0.00 0.00 0.00 91 1019.7
20260502151501 52 162 0.0 1.7 0.00 0.00 0.00 92 1019.7
20260502150958 52 160 0.0 0.0 0.00 0.00 0.00 92 1019.8
20260502150455 52 155 0.0 0.9 0.00 0.00 0.00 92 1020.0
20260502130341 50 153 0.9 0.9 0.00 0.00 0.00 93 1019.8
20260502123323 50 154 0.0 0.0 0.00 0.00 0.00 93 1019.7
20260502122820 50 159 1.7 1.7 0.00 0.00 0.00 93 1020.0
20260502122316 50 154 0.9 1.7 0.00 0.00 0.00 93 1019.9
20260502121815 50 162 0.0 0.0 0.00 0.00 0.00 93 1019.8
20260502121312 50 156 0.0 0.0 0.00 0.00 0.00 93 1019.9
20260502120809 50 170 0.0 0.0 0.00 0.00 0.00 93 1020.1
20260502120305 50 156 0.0 0.0 0.00 0.00 0.00 92 1019.8
20260502115803 50 107 0.9 1.7 0.00 0.00 0.00 92 1020.0
20260502115300 50 118 0.0 0.9 0.00 0.00 0.00 92 1019.9
20260502114755 50 144 0.0 0.9 0.00 0.00 0.00 92 1019.5
20260502114253 50 153 0.0 0.0 0.00 0.00 0.00 91 1020.0
20260502113750 51 153 0.0 0.0 0.00 0.00 0.00 91 1019.9
20260502113248 51 144 0.9 0.9 0.00 0.00 0.00 91 1019.6
20260502112746 51 173 0.9 0.9 0.00 0.00 0.00 91 1020.0
20260502112243 51 158 0.0 0.0 0.00 0.00 0.00 91 1019.8
20260502111740 51 167 0.0 0.9 0.00 0.00 0.00 91 1020.0
20260502111237 51 142 0.0 0.9 0.00 0.00 0.00 91 1020.3
20260502110735 51 183 1.7 4.3 0.00 0.00 0.00 91 1020.1
20260502110232 51 177 0.9 1.7 0.00 0.00 0.00 91 1020.1
20260502105730 51 178 1.7 2.6 0.00 0.00 0.00 92 1020.6
20260502105226 51 142 4.3 6.1 0.00 0.00 0.00 93 1020.6
20260502104724 51 168 1.7 5.2 0.00 0.00 0.00 94 1020.5
20260502104221 50 153 0.9 1.7 0.00 0.00 0.00 94 1020.4
20260502103719 50 157 0.0 0.0 0.00 0.00 0.00 94 1020.3
20260502103217 50 156 0.0 0.0 0.00 0.00 0.00 93 1020.4
20260502102713 50 150 0.0 0.0 0.00 0.00 0.00 93 1019.8
20260502102210 50 160 0.0 0.9 0.00 0.00 0.00 93 1019.5
20260502101708 50 150 0.0 0.9 0.00 0.00 0.00 93 1019.6
20260502101206 50 149 0.0 0.0 0.00 0.00 0.00 92 1019.7
20260502100704 50 149 0.0 0.0 0.00 0.00 0.00 92 1019.4
20260502100202 50 153 0.9 0.9 0.00 0.00 0.00 92 1019.6
20260502091136 52 163 0.9 1.7 0.00 0.00 0.00 89 1019.4
20260502090633 52 157 0.0 0.0 0.00 0.00 0.00 89 1019.6
20260502090130 53 157 0.9 0.9 0.00 0.00 0.00 89 1019.6
20260502071522 55 160 0.9 0.9 0.00 0.00 0.00 82 1019.5
20260502071020 55 159 0.9 0.9 0.00 0.00 0.00 81 1019.3
20260502070517 55 154 0.0 0.0 0.00 0.00 0.00 80 1019.6
20260502070015 55 157 0.0 0.0 0.00 0.00 0.00 79 1019.3
20260502065514 56 157 0.0 0.0 0.00 0.00 0.00 78 1019.2
20260502065011 56 163 0.0 0.0 0.00 0.00 0.00 77 1019.2
20260502064509 57 163 0.0 0.9 0.00 0.00 0.00 76 1019.3
20260502064006 57 153 0.0 0.0 0.00 0.00 0.00 76 1019.2
20260502063504 57 147 0.9 0.9 0.00 0.00 0.00 74 1019.3
20260502063001 57 155 0.9 1.7 0.00 0.00 0.00 75 1019.2
20260502062458 57 141 0.0 0.9 0.00 0.00 0.00 74 1019.0
20260502061957 57 106 1.7 1.7 0.00 0.00 0.00 75 1018.9
20260502061454 57 131 0.0 1.7 0.00 0.00 0.00 74 1019.1
20260502060950 57 147 0.0 0.9 0.00 0.00 0.00 77 1019.3
20260502060446 57 173 0.9 0.9 0.00 0.00 0.00 77 1019.1
20260502055942 57 123 0.9 1.7 0.00 0.00 0.00 77 1019.0
20260502055441 57 157 0.0 0.0 0.00 0.00 0.00 76 1019.0
20260502054940 57 147 0.0 0.0 0.00 0.00 0.00 76 1019.0
20260502054438 57 160 0.0 0.0 0.00 0.00 0.00 75 1018.7
20260502053935 58 160 0.0 0.9 0.00 0.00 0.00 74 1018.9
20260502053432 58 190 0.9 0.9 0.00 0.00 0.00 73 1019.1
20260502052930 59 169 1.7 1.7 0.00 0.00 0.00 73 1018.7
20260502052428 59 163 0.0 2.6 0.00 0.00 0.00 72 1018.6
20260502051926 59 178 0.0 4.3 0.00 0.00 0.00 72 1018.7
20260502051424 59 175 0.9 0.9 0.00 0.00 0.00 72 1018.6
20260502050920 59 181 0.9 0.9 0.00 0.00 0.00 71 1018.6
20260502050416 60 214 1.7 1.7 0.00 0.00 0.00 70 1018.5
20260502045914 61 198 1.7 1.7 0.00 0.00 0.00 68 1018.6
20260502045411 62 165 0.0 0.9 0.00 0.00 0.00 66 1018.6
20260502044908 61 140 0.9 1.7 0.00 0.00 0.00 64 1018.3
20260502044403 61 148 0.0 0.9 0.00 0.00 0.00 66 1018.4
20260502043900 61 147 0.0 0.9 0.00 0.00 0.00 67 1018.2
20260502043358 61 153 0.0 1.7 0.00 0.00 0.00 67 1018.4
20260502042857 60 133 0.9 5.2 0.00 0.00 0.00 66 1018.3
20260502042355 60 137 0.0 0.9 0.00 0.00 0.00 70 1018.1
20260502041852 60 147 0.0 0.9 0.00 0.00 0.00 71 1018.2
20260502041349 61 127 0.0 0.9 0.00 0.00 0.00 71 1018.1
20260502040847 60 125 1.7 1.7 0.00 0.00 0.00 71 1018.2
20260502040344 60 153 0.9 2.6 0.00 0.00 0.00 69 1018.1
20260502035839 60 145 0.9 0.9 0.00 0.00 0.00 72 1018.0
20260502035336 60 155 0.0 0.0 0.00 0.00 0.00 71 1017.8
20260502034834 60 168 0.9 2.6 0.00 0.00 0.00 71 1017.8
20260502034332 61 178 0.9 1.7 0.00 0.00 0.00 70 1017.8
20260502033830 61 170 0.0 0.9 0.00 0.00 0.00 70 1017.7
20260502033327 61 186 0.9 1.7 0.00 0.00 0.00 69 1017.6
20260502032824 61 149 0.0 0.9 0.00 0.00 0.00 69 1017.4
20260502032320 62 158 0.9 1.7 0.00 0.00 0.00 67 1017.4
20260502031818 62 158 0.0 0.0 0.00 0.00 0.00 67 1017.5
20260502031316 62 158 0.0 0.9 0.00 0.00 0.00 66 1017.5
20260502030814 63 165 0.0 0.9 0.00 0.00 0.00 65 1017.3
20260502030312 63 167 0.9 0.9 0.00 0.00 0.00 63 1017.2
20260502025809 64 165 0.0 0.9 0.00 0.00 0.00 62 1017.4
20260502025307 65 170 0.0 0.9 0.00 0.00 0.00 62 1017.3
20260502024804 66 171 0.9 1.7 0.00 0.00 0.00 58 1017.2
20260502024302 67 184 1.7 1.7 0.00 0.00 0.00 53 1017.1
20260502023800 67 159 0.0 0.9 0.00 0.00 0.00 55 1017.0
20260502023257 68 148 0.0 1.7 0.00 0.00 0.00 53 1017.2
20260502022755 68 172 0.9 1.7 0.00 0.00 0.00 50 1017.0
20260502022250 68 153 1.7 4.3 0.00 0.00 0.00 50 1016.8
20260502021748 68 153 0.9 1.7 0.00 0.00 0.00 48 1016.9
20260502021245 68 136 0.9 1.7 0.00 0.00 0.00 50 1017.0
20260502020742 68 159 0.9 2.6 0.00 0.00 0.00 49 1016.8
20260502020240 68 146 0.9 2.6 0.00 0.00 0.00 48 1016.9
20260502015737 68 159 2.6 4.3 0.00 0.00 0.00 47 1016.9
20260502015233 68 160 0.9 0.9 0.00 0.00 0.00 49 1016.9
20260502014731 68 184 0.9 2.6 0.00 0.00 0.00 47 1017.1
20260502014228 68 180 0.9 1.7 0.00 0.00 0.00 47 1017.1
20260502013724 69 158 2.6 4.3 0.00 0.00 0.00 47 1017.0
20260502013220 69 182 0.9 1.7 0.00 0.00 0.00 46 1017.2
20260502012717 70 143 0.9 6.1 0.00 0.00 0.00 46 1016.9
20260502012215 69 207 2.6 5.2 0.00 0.00 0.00 45 1016.8
20260502011711 70 117 2.6 4.3 0.00 0.00 0.00 45 1017.2
20260502011207 70 337 3.5 7.8 0.00 0.00 0.00 44 1017.0
20260502010705 71 66 2.6 6.1 0.00 0.00 0.00 44 1017.1
20260502010201 71 149 0.9 4.3 0.00 0.00 0.00 43 1017.3
20260502005658 71 204 1.7 1.7 0.00 0.00 0.00 43 1017.0
20260502005156 71 169 1.7 1.7 0.00 0.00 0.00 44 1017.2
20260502004652 71 159 1.7 1.7 0.00 0.00 0.00 45 1017.1
20260502004149 71 154 2.6 5.2 0.00 0.00 0.00 44 1017.2
20260502003647 72 359 6.1 7.0 0.00 0.00 0.00 42 1016.8
20260502003143 72 131 0.9 1.7 0.00 0.00 0.00 44 1017.1
20260502002639 72 104 1.7 4.3 0.00 0.00 0.00 43 1017.1
20260502002137 72 114 0.9 1.7 0.00 0.00 0.00 44 1017.3
20260502001635 72 99 4.3 6.1 0.00 0.00 0.00 43 1017.1
20260502001132 72 230 1.7 2.6 0.00 0.00 0.00 44 1017.2
20260502000630 72 135 0.9 2.6 0.00 0.00 0.00 44 1017.0
20260502000127 73 251 3.5 4.3 0.00 0.00 0.00 44 1017.1
20260501235623 73 332 3.5 5.2 0.00 0.00 0.00 43 1017.0
20260501235119 73 148 0.9 1.7 0.00 0.00 0.00 45 1017.1
20260501234615 72 84 0.0 1.7 0.00 0.00 0.00 44 1016.9
20260501234112 72 170 0.0 1.7 0.00 0.00 0.00 46 1016.8
20260501233610 71 146 0.9 2.6 0.00 0.00 0.00 51 1017.1
20260501233108 69 139 0.9 1.7 0.00 0.00 0.00 58 1017.1
20260501232603 69 174 2.6 4.3 0.00 0.00 0.00 59 1017.2
20260501232101 69 200 3.5 4.3 0.00 0.00 0.00 59 1017.1
20260501231558 69 167 0.9 2.6 0.00 0.00 0.00 60 1017.3
20260501231056 68 198 1.7 2.6 0.00 0.00 0.00 60 1017.3
20260501230555 68 172 1.7 2.6 0.00 0.00 0.00 59 1017.5
20260501230052 68 184 1.7 4.3 0.00 0.00 0.00 59 1017.4
20260501225549 66 150 0.0 0.9 0.00 0.00 0.00 62 1017.3
20260501225046 66 182 2.6 2.6 0.00 0.00 0.00 62 1017.6
20260501224544 66 168 0.0 2.6 0.00 0.00 0.00 62 1017.5
20260501224040 67 241 4.3 6.1 0.00 0.00 0.00 61 1017.7
20260501223537 66 187 3.5 5.2 0.00 0.00 0.00 62 1017.8
20260501223033 66 173 1.7 4.3 0.00 0.00 0.00 61 1017.7
20260501222529 66 207 1.7 2.6 0.00 0.00 0.00 61 1017.9
20260501222026 67 185 2.6 4.3 0.00 0.00 0.00 60 1017.9
20260501221523 68 178 1.7 4.3 0.00 0.00 0.00 59 1017.8
20260501221021 68 156 0.0 2.6 0.00 0.00 0.00 58 1018.0
20260501220518 68 160 0.9 5.2 0.00 0.00 0.00 58 1017.9
20260501220015 69 203 3.5 4.3 0.00 0.00 0.00 55 1018.1
20260501215511 72 219 2.6 4.3 0.00 0.00 0.00 51 1018.3
20260501215006 73 213 2.6 4.3 0.00 0.00 0.00 42 1018.1
20260501214502 73 132 1.7 4.3 0.00 0.00 0.00 41 1018.0
20260501213958 73 127 2.6 4.3 0.00 0.00 0.00 41 1018.0
20260501213455 73 71 1.7 5.2 0.00 0.00 0.00 44 1017.9
20260501212950 73 154 0.0 4.3 0.00 0.00 0.00 42 1018.0
20260501212447 74 235 6.1 6.1 0.00 0.00 0.00 43 1018.3
20260501211944 73 170 0.9 2.6 0.00 0.00 0.00 46 1018.2
20260501211441 72 346 3.5 6.1 0.00 0.00 0.00 45 1018.0
20260501210939 71 106 3.5 7.0 0.00 0.00 0.00 47 1018.0
20260501210435 71 231 1.7 5.2 0.00 0.00 0.00 48 1018.2
20260501205932 71 170 1.7 5.2 0.00 0.00 0.00 48 1018.3
20260501205429 71 102 2.6 6.1 0.00 0.00 0.00 47 1018.2
20260501204926 70 183 3.5 6.1 0.00 0.00 0.00 49 1018.1
20260501204422 70 1 2.6 7.8 0.00 0.00 0.00 49 1018.3
20260501203918 70 158 1.7 6.1 0.00 0.00 0.00 48 1018.4
20260501203415 70 5 6.1 9.6 0.00 0.00 0.00 50 1018.4
20260501202913 70 215 4.3 7.8 0.00 0.00 0.00 50 1018.4
20260501202410 70 160 1.7 2.6 0.00 0.00 0.00 52 1018.3
20260501201906 70 28 1.7 1.7 0.00 0.00 0.00 51 1018.5
20260501201403 69 61 1.7 7.0 0.00 0.00 0.00 51 1018.3
20260501200859 70 205 3.5 6.1 0.00 0.00 0.00 52 1018.3
20260501200357 69 231 3.5 7.0 0.00 0.00 0.00 52 1018.6
20260501195855 69 180 1.7 4.3 0.00 0.00 0.00 51 1018.3
20260501195350 69 209 3.5 5.2 0.00 0.00 0.00 52 1018.6
20260501194846 69 173 3.5 6.1 0.00 0.00 0.00 52 1018.6
20260501194342 69 199 1.7 5.2 0.00 0.00 0.00 52 1018.6
20260501193839 68 142 1.7 7.0 0.00 0.00 0.00 55 1018.6
20260501193337 68 229 5.2 6.1 0.00 0.00 0.00 53 1018.5
20260501192835 68 63 2.6 5.2 0.00 0.00 0.00 54 1018.8
20260501192332 67 156 3.5 8.7 0.00 0.00 0.00 57 1018.6
20260501191828 67 192 4.3 7.8 0.00 0.00 0.00 56 1018.8
20260501191326 67 194 2.6 6.1 0.00 0.00 0.00 57 1018.7
20260501190822 67 345 3.5 5.2 0.00 0.00 0.00 56 1019.0
20260501190318 66 234 4.3 7.0 0.00 0.00 0.00 58 1018.8
20260501185814 66 232 5.2 8.7 0.00 0.00 0.00 59 1019.0
20260501185310 66 283 7.0 7.8 0.00 0.00 0.00 60 1018.9
20260501184806 65 75 5.2 6.1 0.00 0.00 0.00 60 1018.7
20260501184302 66 158 1.7 1.7 0.00 0.00 0.00 59 1019.1
20260501183758 67 131 2.6 5.2 0.00 0.00 0.00 59 1019.1
20260501183255 68 189 2.6 4.3 0.00 0.00 0.00 56 1019.1
20260501182751 68 183 2.6 2.6 0.00 0.00 0.00 55 1018.8
20260501182248 67 197 0.9 2.6 0.00 0.00 0.00 56 1018.8
20260501181745 67 238 2.6 4.3 0.00 0.00 0.00 57 1019.0
20260501181242 67 195 1.7 5.2 0.00 0.00 0.00 58 1019.0
20260501180740 67 231 2.6 4.3 0.00 0.00 0.00 58 1019.3
20260501180235 67 165 0.9 4.3 0.00 0.00 0.00 57 1019.0
20260501175732 68 201 1.7 2.6 0.00 0.00 0.00 56 1019.3
20260501175230 67 111 1.7 2.6 0.00 0.00 0.00 58 1019.3
20260501174726 66 165 0.9 2.6 0.00 0.00 0.00 60 1019.2
20260501174223 66 161 2.6 5.2 0.00 0.00 0.00 59 1019.3
20260501173721 64 152 0.9 1.7 0.00 0.00 0.00 61 1019.3
20260501173218 64 183 2.6 4.3 0.00 0.00 0.00 60 1019.5
20260501172714 64 175 0.9 2.6 0.00 0.00 0.00 62 1019.6
20260501172209 63 154 0.0 1.7 0.00 0.00 0.00 63 1019.3
20260501171705 63 156 0.9 2.6 0.00 0.00 0.00 63 1019.6